Voltar ao catálogo

COSMOS 2409

AtivoNavegaçãoPO
NORAD 28420·PAYLOAD·🇷🇺 Russia

Lançado Sep 23, 2004 de Plesetsk Cosmodrome

Loading…

Próximas Passagens (próximas 24 horas)

TLE

AtualizadoSource: Space-Track

Época: Sep 14, 2026, 22:46 UTC

1 28420U 04037B   26257.94907733  .00000085  00000-0  52559-3 0  9996
2 28420  82.4792 272.8944 0014840  83.9781 276.2991 12.45325004998726

Acompanhe COSMOS 2409 em tempo real com AllMySat

Download on the App Store